Precipitable_Water
0.27 0.20 0.18 0.19 0.21 0.22 0.22 0.21 0.21 0.21 0.20 0.19 0.18 0.16 0.15 0.14 0.14 0.16 0.17 0.19 0.19 0.16 0.15 0.16 0.16 0.15 0.14 0.15 0.15 0.15 0.15 0.14 0.14 0.13 0.13 0.14 0.15 0.17 0.19 0.19 0.19 0.20 0.21 0.26 0.31 0.37 0.47 0.59 0.77 1.03 1.20 1.30 1.39 1.43 1.44 1.45 1.47 1.46 1.48 1.51 1.51 1.60 1.67 1.60 1.46 1.36 1.32 1.27 1.20 1.11 1.04 0.98 1.04 1.08 1.15 1.20 1.22 1.18 1.13 1.07 1.03 1.02 1.02 1.01 1.00 1.01
0.27 0.20 0.21 0.24 0.26 0.26 0.26 0.25 0.24 0.24 0.23 0.20 0.18 0.17 0.16 0.16 0.14 0.18 0.18 0.20 0.21 0.18 0.17 0.19 0.16 0.15 0.16 0.16 0.16 0.15 0.14 0.13 0.12 0.12 0.12 0.13 0.14 0.16 0.18 0.19 0.19 0.20 0.22 0.23 0.26 0.29 0.37 0.47 0.66 0.88 1.10 1.24 1.26 1.33 1.38 1.39 1.39 1.42 1.48 1.49 1.54 1.63 1.66 1.62 1.50 1.37 1.34 1.34 1.22 1.07 1.03 1.05 1.08 1.13 1.18 1.20 1.24 1.23 1.19 1.13 1.06 0.99 0.97 0.98 0.97 0.97
0.24 0.21 0.25 0.27 0.30 0.30 0.28 0.26 0.26 0.24 0.22 0.22 0.20 0.19 0.17 0.18 0.19 0.21 0.21 0.22 0.24 0.21 0.18 0.19 0.15 0.14 0.16 0.16 0.17 0.16 0.15 0.14 0.14 0.14 0.14 0.13 0.14 0.15 0.16 0.17 0.19 0.20 0.20 0.21 0.23 0.27 0.32 0.39 0.53 0.73 0.93 1.12 1.23 1.29 1.34 1.37 1.37 1.41 1.48 1.50 1.54 1.57 1.60 1.63 1.61 1.48 1.38 1.39 1.34 1.22 1.17 1.17 1.17 1.29 1.35 1.35 1.33 1.32 1.25 1.19 1.13 1.06 0.99 0.96 0.97 0.98
0.21 0.25 0.29 0.31 0.32 0.29 0.27 0.27 0.27 0.26 0.24 0.22 0.21 0.19 0.18 0.21 0.19 0.17 0.23 0.24 0.25 0.22 0.19 0.18 0.16 0.16 0.18 0.19 0.18 0.18 0.17 0.17 0.19 0.19 0.18 0.17 0.15 0.14 0.15 0.17 0.18 0.19 0.20 0.21 0.22 0.25 0.29 0.38 0.44 0.58 0.77 0.98 1.17 1.28 1.33 1.38 1.36 1.39 1.42 1.49 1.51 1.55 1.51 1.62 1.67 1.56 1.53 1.49 1.45 1.39 1.34 1.35 1.34 1.33 1.42 1.41 1.38 1.34 1.29 1.22 1.19 1.10 1.02 0.98 0.96 0.98
0.25 0.30 0.35 0.34 0.33 0.30 0.27 0.28 0.27 0.25 0.22 0.25 0.23 0.22 0.21 0.21 0.22 0.21 0.21 0.23 0.24 0.25 0.23 0.21 0.18 0.15 0.17 0.16 0.17 0.20 0.22 0.22 0.22 0.22 0.21 0.20 0.19 0.18 0.18 0.18 0.19 0.19 0.20 0.21 0.22 0.23 0.27 0.32 0.44 0.48 0.59 0.82 1.02 1.12 1.23 1.31 1.34 1.34 1.35 1.42 1.50 1.51 1.47 1.46 1.63 1.61 1.59 1.55 1.51 1.46 1.44 1.43 1.44 1.46 1.43 1.35 1.26 1.25 1.24 1.22 1.17 1.08 1.05 1.01 0.99 1.01
0.28 0.33 0.36 0.33 0.32 0.32 0.30 0.27 0.28 0.27 0.23 0.23 0.26 0.25 0.24 0.25 0.23 0.24 0.25 0.23 0.20 0.19 0.22 0.22 0.14 0.11 0.16 0.17 0.18 0.22 0.23 0.22 0.25 0.23 0.21 0.21 0.20 0.20 0.19 0.18 0.19 0.19 0.21 0.22 0.22 0.23 0.25 0.28 0.38 0.53 0.56 0.68 0.84 0.98 1.13 1.25 1.31 1.32 1.33 1.40 1.44 1.47 1.50 1.64 1.70 1.77 1.66 1.55 1.48 1.43 1.35 1.28 1.29 1.24 1.21 1.14 1.08 1.11 1.13 1.15 1.19 1.15 1.10 1.05 1.04 1.05
0.29 0.34 0.34 0.31 0.31 0.31 0.29 0.28 0.30 0.29 0.24 0.22 0.24 0.29 0.28 0.27 0.26 0.25 0.24 0.23 0.18 0.16 0.23 0.26 0.18 0.11 0.15 0.16 0.19 0.22 0.22 0.22 0.24 0.23 0.22 0.21 0.20 0.19 0.18 0.18 0.18 0.18 0.19 0.21 0.23 0.24 0.24 0.26 0.29 0.44 0.58 0.62 0.70 0.85 1.07 1.23 1.29 1.31 1.29 1.31 1.38 1.43 1.46 1.57 1.59 1.58 1.64 1.58 1.56 1.50 1.39 1.31 1.24 1.14 1.12 1.21 1.27 1.20 1.21 1.28 1.20 1.15 1.13 1.11 1.09 1.08
0.29 0.30 0.32 0.32 0.30 0.28 0.27 0.25 0.31 0.31 0.26 0.23 0.30 0.30 0.30 0.28 0.27 0.26 0.25 0.24 0.22 0.25 0.25 0.24 0.22 0.16 0.11 0.14 0.21 0.23 0.21 0.20 0.21 0.21 0.21 0.20 0.20 0.20 0.19 0.19 0.19 0.19 0.19 0.19 0.22 0.25 0.25 0.25 0.26 0.29 0.44 0.62 0.70 0.81 1.06 1.19 1.24 1.27 1.27 1.30 1.34 1.41 1.43 1.52 1.54 1.52 1.50 1.52 1.53 1.52 1.48 1.41 1.36 1.27 1.17 1.22 1.24 1.25 1.26 1.26 1.20 1.16 1.14 1.13 1.13 1.11
0.31 0.28 0.29 0.28 0.29 0.27 0.27 0.31 0.33 0.33 0.28 0.28 0.33 0.34 0.31 0.30 0.29 0.28 0.25 0.23 0.23 0.21 0.17 0.20 0.22 0.16 0.12 0.16 0.23 0.22 0.18 0.19 0.18 0.18 0.18 0.19 0.19 0.20 0.20 0.20 0.19 0.19 0.19 0.20 0.22 0.24 0.26 0.25 0.25 0.27 0.32 0.47 0.69 0.86 0.99 1.12 1.21 1.27 1.31 1.35 1.37 1.38 1.41 1.48 1.51 1.52 1.52 1.56 1.58 1.51 1.50 1.40 1.35 1.33 1.30 1.32 1.32 1.24 1.25 1.23 1.23 1.17 1.15 1.14 1.14 1.14
0.34 0.34 0.34 0.34 0.31 0.29 0.35 0.36 0.35 0.34 0.28 0.34 0.36 0.36 0.34 0.32 0.30 0.27 0.24 0.23 0.22 0.19 0.15 0.19 0.21 0.15 0.11 0.17 0.17 0.20 0.18 0.17 0.17 0.17 0.18 0.18 0.19 0.19 0.20 0.20 0.20 0.19 0.19 0.21 0.23 0.25 0.27 0.28 0.27 0.27 0.30 0.35 0.50 0.77 0.95 1.11 1.27 1.32 1.34 1.35 1.36 1.35 1.38 1.45 1.48 1.46 1.48 1.50 1.55 1.43 1.41 1.40 1.37 1.39 1.35 1.32 1.26 1.23 1.25 1.21 1.21 1.18 1.15 1.14 1.13 1.13
0.37 0.43 0.43 0.37 0.33 0.37 0.38 0.38 0.37 0.37 0.37 0.39 0.37 0.33 0.30 0.29 0.27 0.27 0.25 0.23 0.20 0.15 0.17 0.19 0.20 0.18 0.11 0.15 0.18 0.17 0.17 0.18 0.19 0.20 0.21 0.21 0.20 0.20 0.21 0.21 0.21 0.19 0.19 0.21 0.23 0.25 0.28 0.31 0.30 0.28 0.27 0.29 0.37 0.57 0.82 0.99 1.16 1.30 1.36 1.37 1.33 1.32 1.38 1.44 1.43 1.44 1.45 1.47 1.49 1.39 1.35 1.36 1.30 1.31 1.30 1.24 1.20 1.25 1.25 1.18 1.18 1.15 1.13 1.15 1.13 1.14
0.36 0.38 0.37 0.40 0.44 0.43 0.42 0.37 0.40 0.40 0.40 0.38 0.34 0.30 0.27 0.25 0.27 0.23 0.22 0.22 0.15 0.13 0.17 0.20 0.20 0.21 0.14 0.15 0.20 0.20 0.20 0.20 0.21 0.20 0.21 0.21 0.21 0.21 0.21 0.21 0.21 0.21 0.21 0.22 0.24 0.26 0.29 0.30 0.31 0.30 0.27 0.27 0.30 0.42 0.65 0.86 1.02 1.18 1.30 1.36 1.33 1.33 1.39 1.41 1.41 1.39 1.38 1.42 1.42 1.42 1.39 1.34 1.32 1.27 1.24 1.20 1.14 1.15 1.16 1.16 1.14 1.15 1.15 1.11 1.13 1.14
0.30 0.33 0.39 0.42 0.47 0.43 0.39 0.35 0.37 0.39 0.40 0.37 0.34 0.29 0.21 0.18 0.18 0.14 0.18 0.14 0.14 0.13 0.17 0.22 0.23 0.19 0.19 0.20 0.22 0.20 0.20 0.22 0.23 0.26 0.25 0.25 0.24 0.23 0.23 0.23 0.24 0.23 0.24 0.25 0.26 0.28 0.30 0.31 0.31 0.31 0.30 0.30 0.28 0.32 0.44 0.67 0.92 1.08 1.22 1.31 1.31 1.31 1.35 1.34 1.35 1.34 1.37 1.39 1.38 1.41 1.42 1.38 1.34 1.29 1.22 1.17 1.14 1.15 1.14 1.15 1.15 1.15 1.08 1.07 1.06 1.06
0.29 0.36 0.37 0.38 0.41 0.45 0.42 0.31 0.30 0.30 0.34 0.34 0.30 0.26 0.21 0.16 0.15 0.13 0.15 0.18 0.17 0.21 0.25 0.24 0.27 0.20 0.22 0.23 0.23 0.21 0.22 0.24 0.29 0.33 0.33 0.32 0.31 0.30 0.29 0.27 0.27 0.28 0.30 0.31 0.32 0.32 0.34 0.35 0.35 0.35 0.34 0.32 0.32 0.31 0.36 0.49 0.77 0.99 1.12 1.19 1.22 1.24 1.30 1.31 1.30 1.29 1.31 1.36 1.37 1.39 1.40 1.39 1.37 1.30 1.23 1.19 1.18 1.21 1.19 1.18 1.13 1.12 1.10 1.04 1.00 1.02
0.22 0.23 0.31 0.36 0.32 0.45 0.41 0.39 0.37 0.34 0.35 0.34 0.36 0.30 0.26 0.23 0.19 0.14 0.16 0.14 0.16 0.18 0.23 0.29 0.23 0.20 0.18 0.21 0.22 0.24 0.25 0.29 0.35 0.37 0.37 0.37 0.38 0.37 0.36 0.34 0.33 0.33 0.34 0.34 0.34 0.34 0.36 0.38 0.38 0.37 0.37 0.36 0.36 0.36 0.34 0.43 0.61 0.89 1.03 1.09 1.11 1.16 1.23 1.27 1.29 1.30 1.30 1.35 1.38 1.36 1.38 1.40 1.40 1.32 1.27 1.23 1.21 1.20 1.22 1.21 1.18 1.17 1.16 1.11 1.04 1.03
0.27 0.28 0.35 0.44 0.42 0.45 0.39 0.44 0.46 0.40 0.37 0.35 0.36 0.36 0.29 0.27 0.31 0.20 0.23 0.22 0.20 0.19 0.19 0.23 0.22 0.25 0.24 0.27 0.26 0.27 0.29 0.32 0.36 0.37 0.37 0.37 0.38 0.38 0.36 0.34 0.34 0.36 0.36 0.36 0.35 0.35 0.36 0.38 0.39 0.39 0.39 0.39 0.39 0.41 0.39 0.37 0.52 0.72 0.91 1.01 1.04 1.12 1.18 1.22 1.24 1.25 1.27 1.32 1.38 1.36 1.31 1.34 1.40 1.38 1.32 1.28 1.29 1.28 1.27 1.24 1.20 1.21 1.19 1.16 1.12 1.12
0.30 0.25 0.38 0.42 0.46 0.44 0.43 0.46 0.45 0.47 0.26 0.35 0.36 0.28 0.31 0.39 0.34 0.27 0.26 0.27 0.25 0.22 0.18 0.24 0.23 0.26 0.30 0.25 0.24 0.28 0.30 0.31 0.34 0.33 0.34 0.36 0.37 0.37 0.35 0.36 0.35 0.36 0.37 0.37 0.37 0.37 0.38 0.39 0.39 0.39 0.39 0.40 0.42 0.43 0.45 0.37 0.43 0.59 0.73 0.90 0.98 1.07 1.15 1.20 1.21 1.18 1.22 1.33 1.37 1.34 1.31 1.32 1.37 1.36 1.30 1.30 1.31 1.32 1.31 1.28 1.26 1.24 1.21 1.22 1.20 1.16
0.26 0.26 0.37 0.38 0.36 0.45 0.49 0.48 0.49 0.50 0.48 0.40 0.30 0.36 0.45 0.45 0.40 0.30 0.20 0.23 0.21 0.17 0.18 0.22 0.20 0.21 0.23 0.17 0.28 0.29 0.29 0.30 0.32 0.33 0.34 0.36 0.37 0.35 0.35 0.36 0.37 0.37 0.38 0.40 0.41 0.41 0.41 0.41 0.41 0.41 0.41 0.41 0.44 0.48 0.51 0.48 0.41 0.52 0.69 0.75 0.83 0.92 1.02 1.12 1.15 1.18 1.24 1.29 1.32 1.29 1.28 1.29 1.30 1.32 1.33 1.33 1.33 1.37 1.31 1.27 1.26 1.26 1.25 1.22 1.20 1.20
0.37 0.24 0.30 0.38 0.39 0.43 0.50 0.47 0.44 0.51 0.53 0.41 0.37 0.51 0.34 0.25 0.24 0.30 0.26 0.16 0.16 0.16 0.17 0.21 0.23 0.23 0.24 0.23 0.31 0.30 0.30 0.31 0.32 0.34 0.35 0.34 0.35 0.36 0.37 0.36 0.37 0.39 0.38 0.39 0.40 0.41 0.41 0.41 0.41 0.41 0.41 0.43 0.46 0.52 0.60 0.62 0.56 0.48 0.59 0.77 0.78 0.77 0.84 0.96 1.05 1.11 1.20 1.26 1.26 1.24 1.19 1.21 1.26 1.31 1.34 1.37 1.37 1.37 1.33 1.29 1.27 1.26 1.25 1.26 1.26 1.24
0.40 0.25 0.25 0.38 0.38 0.42 0.44 0.41 0.30 0.37 0.49 0.51 0.50 0.43 0.48 0.39 0.30 0.26 0.27 0.26 0.24 0.18 0.18 0.19 0.22 0.21 0.28 0.30 0.36 0.35 0.36 0.37 0.36 0.34 0.34 0.36 0.38 0.38 0.38 0.38 0.38 0.38 0.39 0.39 0.41 0.43 0.43 0.43 0.43 0.43 0.43 0.44 0.47 0.52 0.65 0.73 0.72 0.61 0.56 0.63 0.76 0.81 0.85 0.93 1.01 1.07 1.14 1.20 1.24 1.25 1.26 1.26 1.27 1.28 1.29 1.32 1.35 1.34 1.33 1.32 1.31 1.30 1.29 1.28 1.28 1.26
0.34 0.38 0.22 0.30 0.40 0.40 0.31 0.38 0.34 0.39 0.35 0.37 0.37 0.35 0.39 0.38 0.43 0.38 0.35 0.29 0.25 0.20 0.20 0.19 0.18 0.25 0.32 0.41 0.41 0.41 0.42 0.42 0.41 0.38 0.38 0.39 0.40 0.41 0.42 0.42 0.41 0.40 0.40 0.40 0.42 0.44 0.44 0.44 0.44 0.45 0.45 0.47 0.52 0.55 0.64 0.79 0.85 0.81 0.74 0.69 0.75 0.78 0.85 0.92 0.99 1.04 1.13 1.23 1.29 1.29 1.29 1.30 1.34 1.39 1.43 1.42 1.41 1.37 1.39 1.38 1.38 1.38 1.38 1.38 1.32 1.30
0.34 0.34 0.25 0.28 0.30 0.30 0.34 0.44 0.43 0.44 0.45 0.41 0.37 0.35 0.37 0.34 0.30 0.24 0.22 0.35 0.31 0.25 0.21 0.20 0.19 0.27 0.37 0.45 0.46 0.47 0.48 0.48 0.47 0.45 0.43 0.43 0.43 0.44 0.43 0.44 0.44 0.42 0.43 0.43 0.44 0.46 0.46 0.45 0.45 0.46 0.47 0.48 0.51 0.54 0.56 0.69 0.87 0.92 0.89 0.87 0.85 0.87 0.89 0.92 0.99 1.05 1.07 1.14 1.21 1.30 1.30 1.29 1.32 1.38 1.48 1.51 1.51 1.51 1.52 1.47 1.43 1.43 1.44 1.40 1.36 1.34
0.42 0.38 0.33 0.25 0.28 0.30 0.37 0.45 0.51 0.51 0.50 0.46 0.44 0.38 0.44 0.41 0.37 0.29 0.21 0.25 0.31 0.30 0.32 0.29 0.24 0.25 0.41 0.48 0.50 0.50 0.51 0.52 0.52 0.52 0.49 0.49 0.48 0.47 0.46 0.46 0.46 0.47 0.46 0.46 0.45 0.46 0.48 0.47 0.48 0.48 0.48 0.47 0.50 0.54 0.58 0.61 0.73 0.91 1.00 1.01 0.99 0.96 0.97 1.01 1.02 1.06 1.10 1.12 1.13 1.20 1.28 1.36 1.40 1.40 1.40 1.44 1.52 1.52 1.51 1.55 1.53 1.49 1.45 1.43 1.42 1.40
0.48 0.35 0.29 0.29 0.32 0.37 0.44 0.48 0.51 0.51 0.49 0.42 0.44 0.46 0.43 0.36 0.39 0.35 0.33 0.34 0.30 0.30 0.27 0.27 0.23 0.27 0.40 0.50 0.53 0.52 0.55 0.56 0.56 0.56 0.55 0.56 0.55 0.53 0.49 0.47 0.46 0.45 0.47 0.49 0.50 0.50 0.50 0.50 0.49 0.48 0.47 0.47 0.48 0.52 0.56 0.60 0.65 0.81 0.95 1.04 1.08 1.05 1.04 1.08 1.12 1.18 1.21 1.18 1.18 1.22 1.25 1.28 1.32 1.34 1.40 1.38 1.36 1.34 1.39 1.49 1.53 1.51 1.48 1.48 1.48 1.44
0.33 0.36 0.31 0.23 0.22 0.26 0.32 0.38 0.40 0.46 0.45 0.39 0.38 0.42 0.45 0.45 0.43 0.42 0.42 0.41 0.30 0.31 0.31 0.27 0.21 0.27 0.40 0.52 0.52 0.53 0.55 0.54 0.54 0.56 0.57 0.55 0.58 0.58 0.54 0.51 0.48 0.48 0.48 0.49 0.48 0.49 0.49 0.48 0.47 0.46 0.47 0.49 0.49 0.52 0.55 0.58 0.62 0.68 0.85 0.96 1.01 1.08 1.15 1.15 1.18 1.19 1.20 1.19 1.22 1.27 1.29 1.31 1.30 1.30 1.33 1.35 1.34 1.23 1.23 1.30 1.38 1.44 1.43 1.46 1.46 1.47
0.38 0.35 0.31 0.21 0.17 0.15 0.15 0.17 0.22 0.27 0.33 0.40 0.42 0.42 0.44 0.42 0.40 0.37 0.30 0.33 0.27 0.32 0.34 0.29 0.27 0.36 0.44 0.49 0.49 0.50 0.53 0.53 0.56 0.57 0.58 0.59 0.59 0.59 0.57 0.53 0.50 0.47 0.46 0.47 0.48 0.48 0.48 0.49 0.49 0.47 0.46 0.49 0.51 0.52 0.54 0.57 0.59 0.63 0.74 0.88 0.98 1.00 1.04 1.13 1.20 1.21 1.22 1.22 1.19 1.18 1.20 1.22 1.24 1.27 1.28 1.30 1.25 1.16 1.20 1.28 1.28 1.28 1.34 1.40 1.40 1.45
0.39 0.39 0.36 0.32 0.27 0.24 0.28 0.33 0.41 0.44 0.39 0.32 0.37 0.40 0.40 0.44 0.45 0.42 0.39 0.32 0.28 0.32 0.31 0.33 0.34 0.35 0.38 0.43 0.45 0.47 0.51 0.51 0.53 0.55 0.55 0.57 0.58 0.61 0.60 0.56 0.53 0.48 0.47 0.47 0.48 0.49 0.51 0.51 0.49 0.48 0.47 0.48 0.50 0.52 0.53 0.55 0.58 0.60 0.64 0.75 0.91 0.99 1.02 1.04 1.06 1.10 1.13 1.13 1.10 1.09 1.11 1.14 1.17 1.22 1.25 1.25 1.20 1.16 1.16 1.27 1.32 1.30 1.27 1.35 1.38 1.41
0.40 0.34 0.36 0.35 0.34 0.35 0.37 0.37 0.41 0.43 0.36 0.37 0.37 0.36 0.41 0.42 0.43 0.39 0.34 0.30 0.38 0.32 0.24 0.35 0.39 0.35 0.36 0.43 0.45 0.47 0.50 0.53 0.55 0.56 0.56 0.57 0.58 0.59 0.60 0.57 0.56 0.50 0.49 0.50 0.49 0.48 0.48 0.51 0.52 0.51 0.49 0.47 0.49 0.52 0.53 0.53 0.56 0.57 0.60 0.65 0.76 0.91 0.99 1.04 1.05 1.04 1.04 1.04 1.02 1.01 1.05 1.09 1.12 1.19 1.24 1.25 1.19 1.18 1.16 1.23 1.29 1.30 1.32 1.36 1.36 1.39
0.37 0.31 0.36 0.36 0.35 0.38 0.40 0.40 0.42 0.40 0.40 0.38 0.38 0.38 0.37 0.40 0.40 0.36 0.35 0.38 0.38 0.30 0.26 0.34 0.39 0.36 0.39 0.44 0.48 0.49 0.51 0.53 0.56 0.57 0.58 0.60 0.60 0.61 0.61 0.58 0.56 0.52 0.51 0.49 0.49 0.48 0.48 0.49 0.51 0.52 0.51 0.50 0.50 0.51 0.52 0.52 0.53 0.55 0.57 0.61 0.66 0.77 0.88 1.01 1.03 1.03 1.02 1.03 1.02 1.03 1.05 1.08 1.13 1.18 1.21 1.23 1.19 1.20 1.18 1.24 1.28 1.32 1.35 1.36 1.38 1.43
0.40 0.34 0.37 0.38 0.34 0.36 0.38 0.38 0.41 0.37 0.38 0.38 0.37 0.37 0.38 0.39 0.38 0.39 0.38 0.40 0.39 0.35 0.36 0.38 0.38 0.38 0.43 0.46 0.49 0.51 0.55 0.57 0.60 0.61 0.59 0.59 0.59 0.60 0.60 0.60 0.58 0.54 0.53 0.51 0.50 0.50 0.49 0.50 0.51 0.52 0.52 0.51 0.51 0.52 0.53 0.52 0.51 0.52 0.53 0.55 0.59 0.66 0.78 0.88 0.99 1.04 1.04 1.02 1.01 1.03 1.08 1.09 1.13 1.17 1.19 1.17 1.19 1.23 1.22 1.26 1.29 1.33 1.38 1.40 1.42 1.46
0.38 0.32 0.40 0.38 0.32 0.32 0.36 0.38 0.39 0.38 0.36 0.33 0.37 0.37 0.38 0.38 0.39 0.40 0.40 0.40 0.40 0.37 0.37 0.37 0.36 0.36 0.46 0.53 0.53 0.54 0.56 0.58 0.59 0.57 0.54 0.56 0.59 0.60 0.60 0.61 0.60 0.58 0.56 0.54 0.53 0.52 0.51 0.51 0.51 0.52 0.52 0.51 0.52 0.53 0.54 0.54 0.53 0.53 0.54 0.56 0.57 0.60 0.70 0.80 0.83 0.92 1.02 1.01 1.04 1.08 1.13 1.14 1.12 1.15 1.16 1.17 1.19 1.27 1.27 1.29 1.31 1.33 1.36 1.39 1.42 1.46
0.41 0.35 0.41 0.38 0.29 0.27 0.34 0.33 0.35 0.37 0.36 0.33 0.33 0.35 0.35 0.34 0.31 0.35 0.35 0.41 0.37 0.32 0.33 0.34 0.32 0.34 0.44 0.51 0.53 0.53 0.52 0.51 0.52 0.53 0.52 0.54 0.59 0.60 0.59 0.61 0.62 0.61 0.59 0.58 0.56 0.54 0.54 0.52 0.50 0.51 0.52 0.52 0.52 0.53 0.55 0.56 0.55 0.55 0.55 0.58 0.58 0.61 0.65 0.71 0.77 0.80 0.87 0.98 1.06 1.10 1.12 1.15 1.18 1.20 1.21 1.24 1.22 1.20 1.27 1.31 1.33 1.35 1.38 1.41 1.43 1.44
0.38 0.36 0.33 0.34 0.26 0.24 0.31 0.34 0.33 0.33 0.31 0.26 0.28 0.31 0.35 0.35 0.36 0.38 0.40 0.43 0.42 0.40 0.32 0.28 0.30 0.43 0.46 0.51 0.46 0.47 0.50 0.48 0.50 0.53 0.51 0.52 0.56 0.60 0.60 0.61 0.63 0.64 0.63 0.61 0.59 0.57 0.57 0.56 0.54 0.53 0.53 0.54 0.54 0.55 0.57 0.60 0.58 0.55 0.58 0.58 0.61 0.62 0.64 0.67 0.72 0.76 0.79 0.89 1.00 1.08 1.12 1.16 1.21 1.23 1.22 1.21 1.21 1.17 1.24 1.28 1.31 1.34 1.38 1.39 1.40 1.41
0.38 0.36 0.33 0.37 0.25 0.24 0.30 0.31 0.31 0.25 0.17 0.19 0.33 0.38 0.37 0.33 0.34 0.31 0.31 0.37 0.41 0.42 0.37 0.41 0.41 0.45 0.47 0.46 0.44 0.45 0.48 0.48 0.51 0.55 0.56 0.53 0.54 0.59 0.61 0.63 0.64 0.65 0.66 0.65 0.63 0.61 0.60 0.61 0.59 0.58 0.58 0.58 0.59 0.61 0.62 0.64 0.62 0.62 0.64 0.64 0.63 0.61 0.62 0.65 0.68 0.73 0.76 0.80 0.87 0.99 1.09 1.13 1.16 1.16 1.17 1.18 1.17 1.16 1.25 1.29 1.29 1.30 1.31 1.31 1.32 1.31
0.35 0.36 0.34 0.37 0.28 0.24 0.29 0.29 0.22 0.16 0.17 0.32 0.39 0.40 0.40 0.38 0.38 0.34 0.35 0.38 0.40 0.43 0.41 0.40 0.41 0.42 0.45 0.47 0.48 0.49 0.50 0.53 0.55 0.55 0.53 0.55 0.58 0.59 0.60 0.62 0.64 0.65 0.66 0.66 0.65 0.64 0.64 0.63 0.62 0.62 0.61 0.61 0.63 0.65 0.67 0.65 0.67 0.67 0.65 0.65 0.63 0.64 0.63 0.65 0.68 0.69 0.72 0.76 0.80 0.86 0.94 1.03 1.08 1.08 1.12 1.14 1.15 1.15 1.20 1.23 1.23 1.22 1.23 1.22 1.21 1.19
0.33 0.33 0.35 0.32 0.33 0.31 0.26 0.24 0.15 0.16 0.29 0.35 0.38 0.39 0.40 0.39 0.38 0.34 0.30 0.37 0.40 0.42 0.40 0.38 0.41 0.43 0.45 0.46 0.48 0.51 0.49 0.50 0.53 0.55 0.54 0.56 0.59 0.60 0.61 0.63 0.64 0.66 0.66 0.68 0.69 0.68 0.67 0.66 0.65 0.64 0.64 0.69 0.69 0.70 0.72 0.70 0.70 0.67 0.65 0.66 0.63 0.64 0.66 0.66 0.66 0.67 0.69 0.69 0.74 0.80 0.85 0.90 0.95 1.00 1.03 1.05 1.07 1.07 1.12 1.14 1.13 1.11 1.15 1.16 1.17 1.21
0.36 0.37 0.35 0.29 0.35 0.22 0.23 0.22 0.21 0.28 0.27 0.30 0.32 0.33 0.34 0.30 0.31 0.29 0.22 0.28 0.39 0.44 0.42 0.39 0.40 0.43 0.45 0.47 0.49 0.48 0.47 0.45 0.43 0.46 0.53 0.54 0.58 0.62 0.64 0.66 0.67 0.68 0.70 0.71 0.73 0.74 0.75 0.74 0.73 0.72 0.72 0.72 0.73 0.73 0.72 0.72 0.70 0.67 0.64 0.63 0.62 0.63 0.65 0.66 0.65 0.67 0.68 0.70 0.73 0.77 0.82 0.85 0.86 0.88 0.94 1.01 1.05 1.05 1.08 1.10 1.11 1.13 1.13 1.10 1.12 1.14
0.40 0.32 0.36 0.30 0.28 0.31 0.23 0.20 0.20 0.19 0.16 0.23 0.32 0.39 0.44 0.43 0.42 0.42 0.34 0.27 0.41 0.44 0.45 0.41 0.39 0.43 0.45 0.46 0.47 0.46 0.45 0.35 0.31 0.37 0.48 0.53 0.58 0.60 0.64 0.67 0.69 0.71 0.72 0.73 0.75 0.77 0.79 0.80 0.79 0.78 0.77 0.75 0.73 0.71 0.72 0.72 0.70 0.67 0.63 0.62 0.62 0.61 0.60 0.61 0.61 0.65 0.69 0.71 0.75 0.78 0.82 0.84 0.84 0.84 0.87 0.92 0.95 0.98 1.01 1.05 1.07 1.07 1.09 1.04 1.03 1.01
0.41 0.41 0.38 0.31 0.27 0.27 0.24 0.19 0.18 0.15 0.19 0.28 0.34 0.39 0.44 0.46 0.45 0.45 0.32 0.22 0.39 0.41 0.42 0.42 0.40 0.43 0.45 0.43 0.44 0.45 0.38 0.28 0.30 0.39 0.49 0.53 0.56 0.60 0.60 0.63 0.67 0.70 0.72 0.74 0.74 0.75 0.78 0.81 0.83 0.82 0.80 0.79 0.77 0.76 0.75 0.73 0.71 0.67 0.63 0.63 0.62 0.61 0.58 0.58 0.62 0.66 0.69 0.73 0.77 0.78 0.78 0.80 0.82 0.85 0.86 0.86 0.89 0.93 0.96 1.00 1.02 1.05 1.08 1.05 1.03 1.01
0.33 0.33 0.33 0.29 0.26 0.27 0.25 0.21 0.18 0.22 0.21 0.32 0.38 0.41 0.45 0.47 0.47 0.36 0.16 0.18 0.32 0.39 0.42 0.42 0.39 0.41 0.43 0.45 0.45 0.41 0.37 0.29 0.32 0.42 0.53 0.55 0.57 0.60 0.61 0.61 0.64 0.67 0.70 0.73 0.76 0.77 0.79 0.82 0.82 0.82 0.82 0.82 0.81 0.82 0.79 0.75 0.71 0.67 0.64 0.63 0.63 0.61 0.59 0.60 0.62 0.66 0.69 0.70 0.72 0.75 0.76 0.77 0.76 0.78 0.82 0.85 0.88 0.91 0.92 0.95 0.98 1.01 1.05 1.07 1.07 1.04
0.26 0.28 0.30 0.25 0.26 0.26 0.25 0.22 0.24 0.25 0.32 0.38 0.39 0.43 0.45 0.47 0.38 0.21 0.15 0.22 0.35 0.39 0.41 0.42 0.41 0.42 0.44 0.43 0.44 0.37 0.42 0.46 0.47 0.53 0.54 0.55 0.54 0.56 0.59 0.62 0.64 0.66 0.67 0.70 0.73 0.77 0.77 0.80 0.80 0.79 0.80 0.83 0.85 0.84 0.83 0.79 0.74 0.69 0.67 0.64 0.62 0.59 0.61 0.62 0.63 0.63 0.64 0.66 0.67 0.67 0.70 0.75 0.75 0.75 0.76 0.80 0.84 0.88 0.90 0.92 0.92 0.97 1.00 0.99 1.00 1.00
0.26 0.28 0.29 0.29 0.25 0.23 0.25 0.21 0.21 0.25 0.33 0.40 0.43 0.44 0.46 0.34 0.20 0.18 0.29 0.40 0.40 0.38 0.42 0.43 0.41 0.44 0.45 0.44 0.43 0.44 0.46 0.51 0.52 0.53 0.52 0.51 0.52 0.55 0.56 0.58 0.60 0.62 0.66 0.69 0.72 0.74 0.75 0.77 0.78 0.79 0.80 0.82 0.84 0.85 0.84 0.80 0.75 0.72 0.70 0.67 0.64 0.64 0.65 0.64 0.64 0.64 0.62 0.62 0.64 0.64 0.63 0.64 0.70 0.74 0.74 0.76 0.78 0.80 0.82 0.86 0.89 0.89 0.89 0.91 0.91 0.90
0.23 0.21 0.21 0.22 0.27 0.28 0.27 0.23 0.20 0.16 0.34 0.40 0.42 0.39 0.44 0.27 0.27 0.35 0.38 0.40 0.43 0.41 0.41 0.42 0.43 0.45 0.46 0.43 0.45 0.45 0.47 0.48 0.49 0.49 0.51 0.50 0.50 0.51 0.54 0.55 0.55 0.57 0.59 0.62 0.67 0.72 0.75 0.75 0.76 0.77 0.78 0.82 0.83 0.84 0.84 0.81 0.76 0.74 0.73 0.69 0.68 0.69 0.69 0.67 0.66 0.64 0.63 0.61 0.61 0.62 0.63 0.62 0.61 0.63 0.68 0.70 0.73 0.74 0.75 0.81 0.85 0.85 0.87 0.87 0.86 0.84
0.33 0.23 0.23 0.25 0.30 0.21 0.21 0.18 0.19 0.27 0.36 0.44 0.40 0.30 0.36 0.39 0.42 0.42 0.41 0.35 0.41 0.42 0.41 0.41 0.43 0.46 0.47 0.46 0.44 0.44 0.46 0.46 0.46 0.48 0.49 0.49 0.49 0.50 0.53 0.54 0.55 0.56 0.57 0.61 0.64 0.67 0.71 0.73 0.74 0.75 0.78 0.81 0.83 0.83 0.84 0.84 0.80 0.76 0.74 0.73 0.75 0.74 0.72 0.70 0.68 0.65 0.62 0.60 0.60 0.61 0.62 0.63 0.63 0.62 0.63 0.64 0.66 0.68 0.70 0.72 0.76 0.80 0.82 0.83 0.84 0.83
0.33 0.28 0.31 0.25 0.33 0.27 0.23 0.26 0.34 0.40 0.42 0.45 0.45 0.43 0.43 0.45 0.46 0.45 0.42 0.40 0.38 0.40 0.45 0.42 0.42 0.45 0.47 0.47 0.46 0.45 0.43 0.45 0.45 0.48 0.48 0.48 0.48 0.48 0.49 0.52 0.54 0.54 0.55 0.56 0.59 0.63 0.65 0.69 0.71 0.74 0.77 0.80 0.82 0.83 0.85 0.84 0.82 0.80 0.77 0.79 0.81 0.77 0.74 0.71 0.69 0.67 0.64 0.61 0.61 0.60 0.61 0.63 0.63 0.63 0.62 0.63 0.64 0.62 0.63 0.64 0.67 0.69 0.73 0.77 0.79 0.79
0.39 0.39 0.41 0.36 0.32 0.38 0.39 0.38 0.42 0.43 0.44 0.44 0.47 0.47 0.44 0.44 0.46 0.46 0.42 0.39 0.42 0.43 0.45 0.42 0.44 0.44 0.45 0.47 0.44 0.45 0.43 0.43 0.43 0.45 0.47 0.48 0.48 0.48 0.50 0.50 0.52 0.54 0.53 0.54 0.55 0.58 0.60 0.65 0.70 0.72 0.74 0.78 0.82 0.83 0.84 0.85 0.85 0.81 0.81 0.84 0.83 0.82 0.79 0.75 0.71 0.68 0.66 0.64 0.63 0.62 0.62 0.61 0.61 0.62 0.63 0.64 0.64 0.63 0.62 0.61 0.62 0.62 0.64 0.69 0.70 0.73
0.37 0.41 0.37 0.30 0.36 0.31 0.24 0.39 0.38 0.39 0.42 0.43 0.44 0.45 0.46 0.46 0.45 0.45 0.43 0.42 0.43 0.45 0.45 0.47 0.45 0.45 0.45 0.45 0.44 0.43 0.41 0.42 0.42 0.43 0.45 0.46 0.46 0.47 0.47 0.48 0.50 0.52 0.52 0.51 0.53 0.54 0.55 0.60 0.64 0.68 0.71 0.75 0.80 0.82 0.83 0.84 0.86 0.86 0.88 0.89 0.88 0.85 0.82 0.78 0.73 0.70 0.68 0.65 0.64 0.64 0.63 0.59 0.58 0.60 0.62 0.63 0.64 0.65 0.64 0.64 0.62 0.61 0.61 0.63 0.64 0.66
0.26 0.43 0.34 0.34 0.34 0.29 0.27 0.35 0.39 0.43 0.44 0.45 0.44 0.41 0.41 0.43 0.45 0.46 0.45 0.44 0.45 0.46 0.46 0.46 0.46 0.44 0.45 0.43 0.43 0.41 0.40 0.42 0.41 0.41 0.42 0.44 0.45 0.46 0.46 0.47 0.48 0.49 0.51 0.52 0.52 0.52 0.52 0.55 0.59 0.64 0.68 0.73 0.78 0.80 0.82 0.84 0.85 0.87 0.89 0.91 0.92 0.91 0.87 0.81 0.76 0.71 0.68 0.67 0.66 0.64 0.63 0.60 0.58 0.59 0.60 0.61 0.63 0.62 0.63 0.65 0.64 0.61 0.58 0.58 0.61 0.62
0.35 0.38 0.27 0.32 0.29 0.33 0.37 0.38 0.39 0.41 0.41 0.42 0.44 0.44 0.44 0.45 0.46 0.46 0.45 0.44 0.44 0.44 0.44 0.46 0.46 0.44 0.43 0.41 0.42 0.42 0.39 0.40 0.41 0.42 0.42 0.43 0.45 0.46 0.46 0.47 0.48 0.49 0.50 0.50 0.50 0.51 0.51 0.51 0.53 0.58 0.64 0.70 0.75 0.77 0.79 0.82 0.84 0.87 0.88 0.90 0.91 0.91 0.90 0.87 0.83 0.77 0.72 0.70 0.68 0.65 0.64 0.63 0.61 0.59 0.58 0.59 0.62 0.65 0.67 0.66 0.66 0.65 0.64 0.69 0.74 0.76
0.34 0.27 0.33 0.32 0.26 0.25 0.25 0.31 0.38 0.30 0.29 0.37 0.42 0.43 0.45 0.47 0.47 0.46 0.45 0.43 0.42 0.42 0.43 0.42 0.43 0.44 0.43 0.42 0.41 0.40 0.38 0.39 0.41 0.42 0.41 0.41 0.43 0.45 0.46 0.46 0.47 0.48 0.48 0.50 0.50 0.50 0.50 0.51 0.51 0.52 0.56 0.61 0.68 0.72 0.75 0.81 0.83 0.85 0.87 0.88 0.90 0.90 0.88 0.89 0.89 0.84 0.78 0.74 0.71 0.68 0.66 0.64 0.62 0.61 0.60 0.60 0.60 0.62 0.64 0.70 0.72 0.73 0.75 0.76 0.77 0.80
0.30 0.29 0.31 0.27 0.26 0.25 0.34 0.40 0.42 0.40 0.38 0.41 0.44 0.47 0.48 0.49 0.48 0.45 0.42 0.41 0.42 0.42 0.43 0.41 0.39 0.38 0.38 0.39 0.41 0.39 0.38 0.38 0.39 0.41 0.40 0.40 0.41 0.45 0.46 0.46 0.45 0.46 0.47 0.48 0.47 0.47 0.47 0.48 0.49 0.49 0.51 0.54 0.59 0.63 0.69 0.76 0.82 0.84 0.86 0.88 0.89 0.89 0.88 0.88 0.88 0.88 0.85 0.82 0.77 0.74 0.72 0.70 0.67 0.66 0.64 0.64 0.64 0.64 0.63 0.65 0.71 0.76 0.80 0.81 0.80 0.80
Wind_Speed
5 5 5 6 7 8 9 9 9 9 9 10 10 10 12 12 13 13 14 14 13 13 16 16 17 18 19 20 20 21 21 22 24 24 25 26 27 28 29 30 31 31 31 32 33 34 35 36 37 38 39 39 38 36 36 36 36 36 36 35 35 35 35 34 33 33 32 31 30 31 31 30 28 27 25 24 24 24 25 25 25 24 24 23 22 21
6 6 6 7 8 9 9 9 9 10 9 9 10 10 11 12 13 14 14 14 13 14 16 17 18 19 19 19 19 20 20 21 22 23 24 26 27 28 29 30 31 31 31 32 33 34 35 36 37 37 39 40 39 38 37 37 37 37 38 38 36 36 36 36 35 34 34 32 31 31 31 30 29 28 27 26 25 25 25 26 25 25 24 24 23 22
6 6 7 8 8 9 8 7 7 9 9 9 9 9 11 12 13 14 14 14 14 14 16 17 18 19 19 19 18 18 19 20 21 22 24 25 26 28 29 30 31 31 31 31 33 34 35 36 37 37 38 40 40 40 39 38 37 37 38 39 37 36 37 37 36 36 35 34 33 31 31 30 29 28 27 27 26 26 26 26 25 25 25 24 23 23
7 7 8 8 8 8 9 8 8 9 9 9 9 10 11 12 11 12 13 14 14 14 15 16 18 19 18 18 18 18 19 19 20 22 23 24 26 27 28 29 30 31 32 32 32 33 34 35 37 38 39 40 41 41 40 39 38 37 38 40 39 36 36 37 37 37 36 35 34 32 31 31 30 28 28 29 28 27 26 25 25 25 25 25 24 24
6 7 7 7 8 8 8 10 8 8 9 10 10 9 11 11 11 12 13 13 14 14 14 16 18 18 16 16 16 17 18 19 21 22 23 23 24 26 27 28 29 30 31 32 32 33 34 35 36 39 39 39 41 42 42 41 40 39 38 39 40 37 36 37 38 38 37 36 35 34 32 32 31 30 30 30 29 27 26 26 25 25 25 25 24 24
7 7 7 8 8 8 7 9 8 6 8 9 9 9 10 11 12 13 13 13 13 14 15 15 16 16 15 15 16 17 18 19 20 20 22 23 23 24 26 27 28 29 31 32 33 33 34 35 36 38 39 39 41 42 43 42 41 40 39 38 39 38 37 37 37 37 37 37 36 35 34 33 33 33 32 31 29 28 27 26 26 25 25 25 24 24
7 8 8 8 9 9 8 8 8 7 7 9 9 9 10 10 11 13 13 13 13 14 15 14 13 16 18 16 16 17 17 18 18 18 21 22 22 23 25 27 28 29 30 32 33 34 35 35 36 38 39 40 41 42 42 43 42 41 40 39 38 38 37 37 36 36 36 36 37 36 36 35 36 35 34 31 29 29 28 27 26 26 25 25 25 24
9 10 9 9 8 9 9 9 9 8 8 9 11 10 10 11 12 13 12 12 14 15 16 14 12 16 18 15 14 15 16 17 17 18 19 21 22 23 25 26 28 30 31 32 33 34 35 36 37 38 39 40 41 41 41 43 43 43 41 40 39 38 38 37 36 36 36 36 37 37 37 37 37 37 35 32 31 30 29 28 28 26 26 26 25 25
9 10 9 9 8 8 8 9 10 9 8 10 11 11 11 12 13 13 13 13 14 13 14 14 11 14 16 14 14 15 15 16 17 18 20 21 23 24 26 27 28 30 32 33 33 33 34 37 38 39 40 40 41 41 42 43 44 43 42 41 40 39 38 38 37 37 36 36 36 36 37 38 38 38 37 34 33 32 30 29 29 28 27 26 25 25
9 9 8 8 8 8 8 9 9 7 8 10 11 11 12 12 13 13 12 12 12 11 12 13 10 11 14 13 14 14 15 17 19 19 20 22 24 25 26 27 27 29 32 33 33 33 33 36 38 40 40 40 40 40 41 42 43 44 43 42 42 40 38 38 38 38 38 37 36 36 37 38 38 40 38 35 34 33 31 30 29 29 28 27 26 25
9 9 8 8 8 8 8 9 8 7 9 10 10 11 12 11 12 11 10 10 9 9 10 10 9 9 11 13 14 16 17 19 20 21 21 22 23 25 26 26 26 28 30 32 33 33 32 33 37 39 41 41 41 40 41 43 44 45 45 44 43 41 39 39 39 39 38 38 37 37 38 38 38 41 40 37 35 33 32 31 30 29 28 27 26 26
10 10 9 9 9 9 9 9 9 9 9 9 10 11 11 10 10 9 9 8 6 7 8 8 9 10 11 14 16 18 18 18 19 20 22 22 23 24 25 25 25 26 28 30 32 33 31 30 33 37 40 42 42 41 42 43 44 45 46 46 44 43 41 39 39 39 39 38 37 38 39 39 38 40 41 38 34 33 33 32 30 29 28 27 27 26
8 9 10 10 9 11 11 10 10 10 9 10 10 11 9 8 8 7 8 7 5 7 7 8 11 11 12 15 18 18 17 16 17 19 20 21 22 22 23 23 22 22 23 26 30 32 31 29 30 34 38 41 42 43 43 43 44 45 47 47 46 44 42 41 40 40 40 40 39 38 40 40 39 40 41 39 36 34 33 32 30 30 29 28 27 26
8 8 10 11 10 12 12 11 11 10 10 11 9 9 8 7 8 8 7 7 7 8 9 10 12 11 12 15 15 15 15 15 15 16 16 17 18 19 19 20 19 19 20 22 25 29 30 30 30 31 35 39 42 43 44 44 44 45 46 47 46 45 44 43 42 41 41 41 40 39 40 41 41 41 40 40 39 37 35 33 32 30 29 28 28 27
9 8 9 11 11 12 13 11 11 10 10 10 7 7 8 7 8 8 8 8 9 10 11 11 10 9 11 13 13 14 14 14 14 13 13 13 13 14 15 16 16 16 18 20 23 26 28 29 29 30 32 36 40 43 44 45 44 44 45 47 47 46 45 44 43 42 41 41 41 41 41 41 42 43 41 40 39 39 38 36 34 32 31 29 29 28
8 8 8 10 11 11 13 12 11 11 10 9 7 8 8 7 7 8 8 8 10 11 10 9 8 9 12 13 13 14 14 13 13 13 12 11 12 11 12 14 15 17 18 19 22 25 27 28 28 29 30 33 36 40 44 45 45 44 45 46 47 46 45 44 43 42 42 41 41 42 43 43 43 44 43 41 39 39 40 39 37 34 32 30 29 29
8 8 8 11 11 10 11 12 12 12 10 9 9 9 8 8 7 8 9 9 10 11 10 9 9 11 13 12 13 14 15 14 14 13 12 12 12 12 12 13 15 18 19 20 21 24 26 28 28 28 29 31 33 37 41 45 46 46 45 46 47 46 45 44 43 43 43 42 41 41 42 43 43 43 43 41 39 38 39 39 38 35 34 32 31 30
8 8 8 10 11 10 10 11 12 13 12 10 10 10 9 8 8 8 8 9 10 10 11 10 10 12 12 11 14 17 17 16 15 14 13 13 13 13 14 15 16 18 20 20 21 23 25 28 28 27 28 30 32 35 39 42 45 46 46 46 47 47 46 45 44 43 43 43 42 41 41 41 42 42 41 40 39 39 38 38 38 36 35 34 33 31
8 8 9 9 10 10 10 10 11 13 13 11 10 10 10 8 8 8 8 9 9 9 11 11 11 12 11 12 16 19 19 19 18 16 15 15 14 15 16 17 18 19 20 20 21 22 24 27 28 28 27 28 30 33 36 40 42 45 46 46 47 48 48 47 46 44 44 44 43 42 42 42 42 41 40 39 39 40 40 40 39 38 37 36 34 33
7 8 8 9 10 10 10 10 10 11 12 12 12 11 9 8 8 8 9 9 9 9 11 12 12 11 11 13 17 20 21 21 21 19 18 17 17 17 18 18 19 19 20 21 21 22 24 26 28 28 27 27 29 31 34 37 40 43 45 46 46 47 48 48 47 45 45 45 44 43 43 43 43 42 41 40 40 41 41 41 40 39 38 37 36 35
8 7 9 10 10 9 10 11 10 10 12 13 13 11 10 9 9 9 9 9 9 9 10 11 12 11 12 15 19 22 22 22 22 22 20 20 21 20 19 19 19 19 20 21 21 22 24 25 27 28 28 27 27 28 31 35 38 40 42 44 45 46 46 47 47 46 45 45 44 44 44 44 43 42 41 41 41 42 42 42 41 40 39 38 37 36
8 8 9 11 11 9 9 10 10 10 10 12 12 11 11 11 10 9 9 8 9 9 9 10 11 11 12 15 20 23 22 22 23 24 23 23 24 23 21 21 20 20 20 21 22 22 24 25 26 28 28 27 27 27 29 32 36 39 40 41 43 44 45 46 46 46 46 45 45 44 44 45 45 44 44 42 42 41 42 42 42 41 40 39 38 37
7 7 9 11 11 9 8 9 10 10 10 11 11 11 11 10 10 9 9 9 9 9 9 10 11 12 12 15 20 22 21 22 24 24 23 23 24 24 23 22 21 20 20 21 21 22 23 25 25 27 28 28 27 26 27 29 34 38 40 41 42 43 45 46 46 47 47 46 46 46 46 46 47 47 47 46 44 42 41 41 41 41 41 40 38 38
8 7 8 10 10 8 8 9 10 10 10 10 11 12 12 11 10 9 9 10 10 10 10 10 11 13 14 17 20 21 21 22 23 25 24 22 22 23 22 22 21 20 20 20 21 22 23 24 25 26 27 27 27 26 27 27 30 35 40 41 42 43 45 46 46 47 48 48 48 48 49 49 48 47 47 47 46 44 42 42 42 41 41 40 39 38
8 8 8 9 10 8 8 9 9 10 10 10 10 11 11 11 11 9 9 10 10 10 11 10 10 15 17 18 21 22 21 22 23 25 26 23 20 20 20 20 20 20 20 20 20 21 22 23 25 26 27 27 27 26 27 27 28 31 36 40 42 43 45 46 47 48 48 49 49 49 49 50 49 47 45 46 46 44 42 42 42 42 42 41 40 39
8 8 8 8 8 8 8 9 9 10 10 10 9 10 11 11 11 10 10 10 10 11 13 11 12 17 20 20 22 23 22 22 23 25 26 25 22 19 18 18 18 18 19 19 20 21 21 23 24 26 27 27 27 27 27 27 28 29 32 36 39 42 44 45 47 48 48 48 49 49 49 49 48 47 45 44 45 44 42 41 42 42 42 41 41 41
8 9 8 7 7 8 8 9 9 9 9 9 10 11 11 10 11 10 10 10 11 12 13 12 15 20 22 23 23 24 24 23 24 25 26 26 24 21 18 18 17 17 18 18 19 20 21 22 23 25 28 28 28 28 27 27 28 28 29 31 34 38 41 43 45 47 48 48 48 49 49 48 47 47 45 44 44 44 43 41 41 42 42 42 41 42
9 10 9 8 9 9 9 9 9 8 8 9 10 11 11 10 10 10 10 11 13 13 12 15 18 21 22 23 24 25 25 24 24 25 26 25 25 24 21 19 18 17 17 17 18 19 21 22 23 24 27 29 29 28 28 28 28 29 29 30 31 33 36 39 42 44 46 47 47 48 49 49 47 46 45 44 44 44 43 42 41 41 41 41 41 42
9 10 9 8 10 10 9 10 9 8 9 9 9 10 11 10 11 11 11 11 13 13 14 17 20 20 21 22 23 24 25 25 24 24 25 25 25 26 24 21 20 18 17 17 17 19 20 22 23 24 26 28 29 29 29 29 29 29 30 30 30 31 33 36 39 42 43 45 46 47 48 48 48 47 46 44 43 43 43 42 41 40 40 40 41 41
9 10 9 8 10 10 9 9 9 9 9 9 10 10 11 11 11 11 11 12 13 13 14 17 19 19 19 21 23 24 25 25 23 23 25 25 24 26 26 23 21 20 19 17 17 18 19 21 23 24 26 28 29 30 29 30 30 30 30 31 31 31 33 34 37 40 42 43 45 45 46 47 47 47 46 45 43 42 43 43 42 40 40 40 40 40
10 10 8 8 10 10 8 9 10 9 9 9 10 11 11 11 11 11 11 12 12 13 15 17 18 18 18 21 23 24 24 25 24 24 25 25 25 26 26 24 22 21 20 18 17 17 18 20 22 24 26 28 30 30 30 31 31 31 31 31 31 31 32 34 35 37 40 41 42 43 44 45 46 46 46 46 44 42 42 43 42 41 41 40 40 40
9 10 9 9 10 10 8 9 11 10 8 9 10 11 11 11 11 11 12 12 12 14 16 17 18 18 19 21 22 23 24 25 24 25 26 26 26 27 27 25 23 21 21 20 18 17 17 18 20 23 25 28 30 31 31 31 32 32 32 32 32 31 31 33 34 35 37 39 40 42 42 43 44 45 46 46 45 42 42 43 43 42 41 41 41 40
8 9 9 9 10 10 9 10 11 10 9 9 10 10 10 11 11 11 12 12 12 13 15 16 17 18 20 21 22 23 24 25 25 26 26 27 28 28 27 26 24 22 21 20 19 18 17 17 18 21 24 27 30 31 32 32 33 33 34 34 34 33 32 33 33 34 35 36 38 40 41 42 43 44 45 45 45 43 42 43 43 42 42 41 41 41
8 8 9 9 9 10 11 11 10 9 9 9 10 9 9 10 11 11 12 13 13 12 14 15 16 18 19 21 22 23 24 25 26 25 26 27 28 27 27 26 25 24 22 21 20 19 18 17 17 18 21 25 29 31 33 33 34 34 34 34 35 35 35 34 34 34 35 35 35 37 39 41 42 43 43 43 43 42 42 43 43 42 41 41 41 42
8 8 9 10 10 11 12 11 10 9 9 10 11 10 10 10 11 12 13 13 12 12 14 16 17 18 19 20 22 23 24 25 25 24 25 27 28 27 27 26 26 25 24 22 21 19 18 18 18 18 19 22 25 29 31 33 34 34 34 34 35 35 36 35 35 35 35 35 35 35 37 39 40 41 42 42 42 41 42 42 42 42 41 40 40 41
8 8 9 10 10 10 10 9 8 10 11 11 11 11 10 10 11 12 13 13 11 12 14 16 17 18 19 20 22 22 24 24 23 22 24 27 28 28 27 27 26 26 24 24 22 20 19 18 18 18 19 20 22 24 27 30 33 34 35 35 35 36 36 36 37 36 36 36 36 36 36 37 38 40 41 42 43 42 42 42 42 41 41 40 40 40
8 9 10 10 10 9 9 9 10 11 12 11 10 9 10 11 11 12 13 13 12 12 14 16 17 18 19 20 22 23 23 22 20 21 25 27 28 28 28 27 27 26 25 24 23 21 19 18 17 17 17 18 19 21 23 26 29 32 34 35 36 36 36 37 37 38 37 37 37 37 37 37 38 39 40 41 43 44 44 44 44 43 42 41 41 41
8 9 9 10 9 8 9 10 11 11 11 10 9 10 11 12 12 12 13 13 12 13 16 16 16 18 19 20 22 22 22 20 19 21 25 28 27 27 27 28 28 26 25 25 24 22 20 17 16 16 17 17 19 20 21 23 26 29 32 34 36 37 37 38 38 38 38 38 38 37 37 38 39 40 40 41 42 44 44 44 45 45 44 43 42 42
9 9 8 9 10 9 8 9 9 9 10 10 10 12 13 12 12 12 12 13 13 15 17 17 17 18 19 20 22 21 20 19 19 21 25 28 27 27 27 27 28 27 26 25 24 22 20 17 16 15 16 16 17 18 20 22 24 26 29 32 35 37 38 38 39 39 39 39 39 39 39 39 39 40 40 41 41 42 43 43 43 43 44 45 44 43
9 10 9 9 10 9 8 9 9 10 10 10 11 13 13 12 11 12 12 13 14 17 18 17 17 18 19 20 21 19 19 19 19 22 25 26 27 27 27 27 27 27 27 26 24 22 21 19 17 16 15 16 17 17 18 21 23 25 27 30 33 35 38 39 40 41 41 42 41 41 41 40 40 41 41 41 42 42 43 42 42 42 43 44 44 43
9 10 9 9 9 9 9 10 11 12 11 11 11 12 12 12 12 12 13 14 16 18 18 17 18 18 18 19 19 18 19 20 20 22 24 25 25 26 26 26 27 27 27 26 25 23 22 21 19 18 16 16 17 17 16 17 20 22 25 27 30 33 36 39 41 42 43 43 44 43 43 42 42 42 42 42 42 43 43 43 42 42 43 43 43 43
10 10 10 9 9 9 10 10 12 12 11 10 11 12 12 12 13 13 14 16 17 18 18 18 18 17 17 18 18 18 19 19 20 21 22 23 24 25 26 26 26 26 26 26 26 25 23 21 20 19 18 16 16 16 16 16 17 18 21 24 27 30 34 37 40 41 43 44 45 45 45 45 44 44 44 43 43 44 44 43 43 42 42 42 42 42
9 9 10 10 9 9 10 10 11 11 10 10 11 12 12 12 13 14 15 16 17 17 17 17 17 17 17 17 18 18 18 19 19 20 21 22 23 23 24 25 26 26 26 26 27 27 26 23 22 21 19 18 16 15 15 16 17 17 19 21 24 27 31 35 38 40 42 44 45 46 47 47 47 46 45 45 45 45 45 45 44 43 43 43 42 42
10 10 10 10 9 9 9 9 10 11 11 11 11 12 12 13 13 13 14 16 17 17 16 17 17 17 17 17 18 18 17 18 19 19 20 21 22 22 23 24 25 25 26 26 27 27 27 25 24 23 21 19 18 16 15 15 16 17 19 20 22 25 28 31 35 39 41 43 45 46 47 47 48 48 47 47 47 47 46 46 46 45 44 44 44 44
11 10 10 10 10 10 10 12 12 12 12 12 12 12 13 13 13 13 14 15 16 16 16 16 17 17 17 17 17 17 17 18 18 18 19 20 21 21 22 23 23 24 25 25 26 27 27 25 24 24 23 21 20 18 16 16 16 17 18 20 21 23 25 28 31 35 39 42 44 45 47 48 48 49 49 49 48 48 48 48 47 47 46 45 45 45
12 11 10 11 12 13 13 13 13 12 12 12 12 12 13 13 14 14 14 14 15 15 16 16 17 17 17 17 17 17 17 18 18 18 19 19 20 20 21 21 22 23 24 25 24 25 26 25 24 24 24 25 24 21 19 18 17 17 19 20 20 21 23 26 28 32 36 40 43 45 46 47 49 49 50 50 50 50 49 49 48 48 47 46 46 46
12 12 11 12 12 13 13 12 12 12 12 13 13 13 13 13 14 13 13 14 15 15 16 16 16 17 17 17 17 17 17 18 18 18 18 19 20 20 20 20 21 22 22 23 24 24 25 25 24 24 24 25 26 25 24 22 20 18 18 19 20 20 21 23 25 29 32 36 40 43 45 47 48 49 49 49 50 50 50 49 49 48 48 47 47 47
12 12 13 12 12 12 13 14 14 14 14 13 13 13 12 12 13 14 14 14 14 15 16 16 16 17 17 17 17 17 17 17 17 18 18 19 19 19 19 20 20 21 21 22 23 24 23 23 24 24 24 24 25 25 25 25 24 23 21 20 19 19 20 21 23 26 29 32 36 40 43 45 47 47 48 48 49 49 49 49 49 49 48 48 48 47
12 13 13 12 12 13 14 14 14 14 14 14 13 13 12 13 13 14 14 14 14 15 16 16 17 16 16 17 17 17 17 17 17 17 18 18 19 19 19 19 20 20 20 20 21 22 22 22 23 23 23 23 23 24 24 25 25 25 25 25 23 20 18 18 20 22 25 28 31 36 39 41 43 44 45 46 46 47 47 47 48 49 48 48 47 46
12 13 12 12 13 14 13 13 12 12 13 14 13 13 13 13 13 14 14 14 14 15 15 16 17 17 16 17 17 17 17 17 17 17 17 17 18 19 19 19 19 19 19 20 20 21 22 22 22 22 22 23 23 24 24 24 25 25 26 26 27 25 21 18 18 20 22 24 27 31 35 38 40 41 42 43 43 43 43 43 44 46 46 46 45 44
13 14 13 13 13 14 14 14 12 12 13 14 13 13 13 13 13 13 14 14 14 15 15 15 16 17 17 17 17 17 17 18 17 17 17 17 18 18 18 18 18 18 19 19 19 20 21 22 22 22 23 24 24 24 24 24 24 25 25 27 28 27 25 24 23 19 17 18 21 25 29 32 34 36 37 39 39 39 39 39 39 40 42 42 42 42
Wind_Direction
332 328 316 301 295 292 287 274 268 275 277 279 280 275 272 272 273 274 275 278 278 277 276 274 273 273 273 272 269 267 265 261 258 256 252 248 244 244 244 245 246 245 243 243 241 238 235 233 231 228 226 224 222 223 224 225 225 224 222 223 225 223 220 220 220 218 217 218 219 220 221 221 221 222 222 222 224 224 223 222 221 220 221 221 222 221
336 333 313 298 291 291 289 278 273 280 280 280 279 278 278 274 273 276 276 280 281 278 278 279 279 276 273 273 270 268 265 260 257 255 254 251 246 244 244 245 246 245 243 243 242 238 236 234 232 230 227 224 221 220 221 223 225 225 224 224 224 222 220 220 221 219 217 217 218 219 220 221 221 221 220 220 222 222 222 222 222 222 222 221 221 221
333 317 301 297 298 298 295 287 283 284 283 280 279 280 283 280 280 283 281 283 286 282 282 284 283 278 275 273 270 268 263 260 260 256 255 254 249 246 245 245 245 245 244 244 242 239 236 234 232 230 228 225 222 220 220 222 224 224 224 223 224 224 222 220 220 218 216 217 218 219 219 219 219 220 219 220 220 220 221 222 222 222 222 221 221 222
329 308 302 309 314 312 305 304 303 297 292 285 282 284 286 288 289 289 287 288 290 286 284 287 284 280 278 276 273 269 265 264 265 262 258 256 251 248 247 246 245 244 245 244 242 240 237 235 232 230 229 227 224 222 221 221 222 223 224 224 224 226 224 220 218 217 217 217 218 218 219 219 219 219 219 220 220 219 219 221 222 223 222 221 222 222
326 309 315 327 328 323 312 311 312 306 301 292 284 282 285 290 288 286 290 292 294 292 290 294 291 284 281 278 277 277 274 269 268 266 263 258 254 250 249 247 245 243 243 243 243 240 238 235 232 230 229 228 225 224 223 222 222 223 224 223 223 224 223 220 217 217 218 217 217 217 217 218 218 219 219 219 220 219 219 220 222 223 223 222 222 223
331 320 328 332 327 327 319 311 307 301 305 301 290 282 282 287 287 289 295 298 299 295 293 301 297 285 282 281 281 285 282 275 272 270 265 262 259 255 251 248 246 244 242 242 242 240 237 236 234 231 230 228 226 226 225 224 223 222 223 223 222 221 221 221 220 219 218 217 216 217 216 217 218 219 218 218 219 219 219 220 222 223 223 222 223 224
335 333 337 331 321 323 320 309 304 303 310 307 297 290 288 293 294 293 297 298 296 291 290 296 290 283 286 286 285 288 286 280 276 270 265 264 262 258 254 250 248 245 242 242 242 240 238 235 234 232 231 229 227 227 226 224 222 221 221 221 221 221 221 222 224 223 220 217 216 218 218 218 219 219 218 218 219 220 220 221 222 223 223 223 223 224
337 338 341 336 326 324 320 312 306 307 310 303 298 298 298 302 299 293 292 291 289 291 293 292 285 283 284 287 291 293 291 286 279 272 267 265 264 261 257 253 250 246 242 241 241 240 238 235 233 232 232 231 229 227 225 222 221 220 220 220 220 220 221 223 225 223 220 219 218 219 220 219 219 219 218 218 220 221 221 221 222 223 223 224 224 225
345 347 346 344 341 336 326 313 306 308 309 300 298 301 299 298 295 291 290 289 291 296 295 290 287 282 280 290 302 300 293 288 282 277 273 270 268 264 259 256 252 247 243 240 240 239 238 235 233 232 231 231 230 227 225 222 220 220 220 220 219 219 221 223 223 220 219 219 220 222 221 220 220 219 218 220 221 221 221 222 223 223 223 224 225 226
356 354 352 358 357 346 333 321 317 324 320 308 306 306 301 300 301 298 294 293 297 297 290 290 293 286 286 298 309 308 302 293 285 280 276 273 271 266 261 257 254 249 244 240 239 238 237 236 234 232 231 231 229 227 225 223 221 220 219 219 218 219 220 220 220 220 220 221 223 224 222 221 219 216 216 220 221 221 222 222 222 223 224 224 226 227
355 358 1 6 1 346 337 332 330 333 327 323 325 318 311 311 310 307 304 303 305 299 291 295 302 302 301 304 308 311 306 294 285 280 277 276 274 270 263 258 256 252 246 242 240 239 238 236 234 232 230 230 229 227 226 224 223 221 220 219 218 219 219 218 218 219 221 222 224 224 222 220 219 215 214 218 219 220 222 222 221 223 224 225 226 227
356 6 5 359 359 355 349 342 335 332 332 335 335 331 327 325 325 321 318 321 318 303 294 297 309 310 300 302 310 312 306 297 288 282 278 276 274 272 265 260 258 253 247 243 240 238 238 237 235 232 230 229 228 227 226 224 223 222 221 220 219 219 219 218 217 218 221 222 224 224 221 220 218 215 214 216 217 218 219 220 221 222 224 225 226 228
354 360 358 356 2 3 358 349 341 340 343 344 342 346 349 345 345 341 329 331 325 307 298 301 311 308 296 304 312 313 311 307 297 288 281 276 272 271 265 258 255 251 247 243 240 238 237 236 235 233 231 230 228 227 226 224 223 223 221 220 219 219 219 219 219 220 221 222 223 223 222 220 218 216 215 216 219 220 219 219 219 220 223 225 227 229
354 350 357 4 3 4 5 360 353 349 349 348 349 358 2 358 355 345 334 337 327 313 308 308 311 307 305 311 315 315 317 316 310 301 291 281 273 268 261 255 251 249 247 244 240 238 238 237 236 234 232 231 229 228 226 224 223 222 222 221 220 219 220 220 221 221 222 223 223 222 222 221 219 218 218 219 221 221 219 219 219 220 223 225 226 228
356 346 356 6 359 360 5 4 358 353 353 352 357 8 4 359 353 341 337 339 328 319 315 315 314 307 309 315 319 321 321 321 322 316 303 290 278 269 262 258 256 254 250 246 242 239 239 238 237 235 234 232 231 229 226 224 223 222 221 221 221 220 219 220 221 221 222 223 223 222 221 221 221 221 222 223 223 222 220 221 222 223 224 226 227 228
352 340 347 357 355 360 3 359 358 359 360 356 357 3 358 350 345 340 337 332 332 333 325 320 314 303 307 313 320 324 324 327 328 323 317 305 292 281 271 266 265 260 256 252 246 242 240 239 238 237 236 234 233 230 227 223 222 222 221 221 221 219 219 220 221 222 222 223 223 223 222 223 222 222 222 223 224 223 222 222 224 225 225 227 229 230
347 335 342 354 354 357 359 359 5 6 0 355 355 355 351 347 345 343 339 338 344 345 336 332 322 316 319 320 322 327 326 327 329 326 322 313 303 293 277 271 270 265 261 257 251 246 242 240 240 239 238 236 235 232 228 224 222 222 221 220 219 219 219 221 222 223 223 223 222 222 223 222 221 220 221 222 223 223 222 223 225 226 226 228 231 232
340 330 337 354 352 347 352 3 12 9 2 1 359 352 349 352 351 348 344 345 350 345 340 339 329 325 329 322 324 330 326 322 323 323 319 311 306 298 284 277 274 269 265 260 255 250 244 241 241 241 241 239 237 234 229 225 223 223 222 221 220 219 221 222 223 223 223 222 221 221 221 220 218 218 220 221 222 223 223 224 225 226 228 230 232 233
336 330 329 345 348 343 350 1 3 1 2 4 357 353 355 354 351 352 347 344 346 342 341 342 335 333 334 326 329 332 325 317 315 314 313 308 303 296 289 285 279 273 269 263 259 254 247 243 242 243 244 242 240 237 231 227 224 223 223 222 221 221 222 223 224 224 223 222 221 221 221 221 220 221 221 222 223 224 225 226 226 227 229 231 233 234
330 329 321 334 345 345 348 352 351 350 356 360 357 356 357 352 347 346 342 342 346 342 341 344 343 341 337 332 333 331 324 318 312 307 305 303 300 295 289 285 280 274 269 264 260 256 250 245 243 244 244 243 240 237 232 228 225 224 223 223 222 222 223 223 224 224 224 223 222 221 221 222 224 224 224 223 224 225 226 227 227 228 230 232 233 234
326 323 312 324 342 347 342 344 348 345 348 355 357 355 352 351 349 341 336 340 344 344 345 345 342 339 336 337 337 332 325 319 313 307 301 298 298 295 289 284 280 274 269 265 260 257 253 247 243 243 243 242 240 236 232 229 226 225 224 223 222 222 223 223 223 224 224 223 222 221 221 221 222 224 224 224 225 225 225 226 227 229 230 232 233 234
318 314 311 320 332 336 332 336 346 346 346 353 356 354 349 348 347 343 343 347 344 343 346 344 341 339 339 341 342 339 333 324 317 310 302 297 295 294 289 284 279 274 270 265 261 257 253 248 244 242 241 242 240 236 233 230 227 226 225 223 222 222 222 222 223 223 224 223 223 222 222 222 223 225 226 226 226 225 224 224 226 227 229 231 233 234
315 316 318 319 318 321 325 334 346 348 349 353 356 355 351 351 352 348 346 348 345 342 341 341 341 339 337 339 343 344 342 337 330 322 312 301 294 293 291 286 280 276 270 265 261 257 252 248 245 241 239 240 240 237 234 231 228 226 225 224 223 222 222 222 222 222 223 224 224 224 225 225 226 228 229 230 231 230 227 225 225 226 228 231 233 234
322 322 321 317 316 322 330 335 340 344 351 356 355 354 354 356 354 346 341 344 345 345 344 346 344 339 337 340 342 344 344 342 340 337 330 317 301 295 292 287 282 279 274 267 261 257 252 248 245 241 238 237 239 238 235 233 230 227 224 224 224 223 223 223 223 223 224 224 224 225 226 228 229 230 231 232 233 234 233 229 227 227 228 230 233 234
323 321 321 320 320 322 327 329 329 335 348 352 349 351 356 356 353 351 350 349 348 345 342 344 344 340 342 344 342 344 345 344 343 343 341 334 319 305 296 290 284 280 279 272 263 259 255 248 244 241 239 237 237 238 236 234 232 229 225 224 224 224 224 224 224 225 225 225 225 226 227 229 230 231 232 233 233 235 235 232 229 229 229 231 233 234
323 322 323 323 319 315 315 318 320 326 338 344 342 346 351 352 352 353 351 348 349 344 339 340 338 338 343 348 345 345 346 346 345 345 344 341 335 322 308 298 288 282 283 278 267 260 256 250 244 241 240 238 236 236 236 234 233 231 228 225 224 225 225 225 225 226 226 226 227 228 228 229 230 231 232 233 233 234 235 233 231 231 231 233 234 235
328 324 319 311 307 307 307 307 311 319 324 328 334 340 343 344 345 346 346 345 344 340 339 342 340 337 342 348 347 346 347 347 346 345 344 344 342 334 321 309 299 289 285 281 271 261 257 253 247 242 240 238 237 236 236 235 233 231 230 228 226 225 225 225 226 226 227 227 228 228 229 230 231 232 233 234 234 235 235 233 232 232 232 234 235 235
330 322 315 306 301 304 305 304 307 313 310 310 320 332 336 335 337 341 343 343 343 340 339 342 342 340 343 347 347 347 347 348 346 344 344 346 345 341 330 318 311 302 292 286 277 267 260 256 251 244 239 238 238 237 236 236 234 231 230 230 229 227 226 226 226 226 226 227 228 229 230 231 232 232 233 234 235 235 234 232 231 231 232 234 235 235
329 316 313 313 306 303 303 303 305 306 304 303 309 321 331 330 330 334 336 339 343 341 337 338 340 341 344 347 348 347 347 348 346 344 346 347 346 345 338 325 320 316 304 293 284 273 264 259 255 248 241 238 238 238 236 236 235 234 232 231 231 229 228 227 226 226 227 227 228 230 230 231 232 233 234 234 235 235 233 230 230 231 232 233 233 234
327 316 316 318 312 307 304 306 310 306 302 301 301 312 325 326 321 323 327 332 336 334 333 336 339 341 345 347 347 347 346 347 347 347 349 350 348 348 344 333 327 324 315 302 291 280 269 262 258 252 244 239 238 239 237 235 235 236 235 233 232 231 230 229 227 227 227 228 229 230 230 231 232 233 234 234 235 234 231 228 229 231 232 232 232 232
322 317 319 322 318 314 308 312 315 307 298 296 298 307 319 321 318 320 321 325 331 332 332 336 339 341 345 346 345 345 346 348 350 350 350 350 349 349 348 341 332 328 323 312 300 288 276 267 262 256 249 242 239 239 239 237 235 236 236 236 234 232 231 230 229 229 229 229 230 230 230 231 232 232 233 232 233 232 229 227 229 231 231 232 232 232
320 318 322 328 322 312 306 313 315 311 308 304 301 306 313 317 318 319 316 318 326 331 333 337 340 342 343 343 343 346 348 349 350 349 348 349 349 349 349 345 338 333 328 320 308 297 285 273 266 261 254 247 243 240 239 238 237 236 236 236 235 234 232 231 230 231 231 231 231 230 230 231 231 231 231 230 230 230 229 228 229 231 233 234 233 232
317 317 319 322 318 311 312 317 316 318 320 310 301 301 307 311 313 314 314 313 317 327 334 336 337 337 340 342 344 347 349 350 349 348 348 348 350 350 350 347 344 340 333 325 316 306 294 281 271 265 258 252 246 242 240 240 239 237 237 237 236 236 234 232 231 231 231 231 230 230 230 230 230 230 230 230 230 230 229 229 230 232 234 235 234 233
318 318 317 316 313 311 316 320 322 321 313 302 301 304 305 308 309 311 313 310 309 321 330 330 329 332 337 341 343 345 348 348 347 348 349 349 349 351 351 350 347 344 337 329 321 312 300 290 280 270 262 255 248 244 242 241 240 239 238 237 237 237 236 234 233 232 231 231 230 230 230 229 229 229 230 229 229 229 229 229 230 233 234 235 234 234
318 317 317 315 312 312 318 327 329 317 301 298 305 308 305 307 308 307 309 306 304 313 324 326 326 329 334 338 340 341 343 344 345 348 351 351 349 349 351 351 348 346 342 334 325 316 306 297 288 277 269 260 251 246 243 242 241 240 238 238 238 238 237 235 234 232 232 231 231 231 230 229 230 229 229 228 228 228 228 229 231 233 234 234 235 235
314 314 314 313 312 313 319 326 318 305 303 305 307 308 311 316 316 313 312 309 304 311 321 324 324 327 331 334 337 338 339 341 345 349 351 351 350 349 350 351 350 346 344 340 332 322 312 303 294 285 278 267 257 249 245 244 242 240 239 239 238 238 238 237 235 234 233 233 232 232 231 230 230 230 229 228 228 228 229 229 231 232 233 234 235 236
311 312 311 310 311 314 315 312 309 312 316 311 303 307 314 316 316 316 314 311 306 308 316 320 322 325 328 330 333 335 336 339 343 348 351 352 352 350 350 351 351 348 345 344 340 332 322 312 301 293 285 275 265 256 250 247 244 242 241 240 239 238 238 238 237 236 235 234 234 233 232 231 231 231 230 229 228 228 229 230 230 232 233 234 235 236
312 309 306 307 311 316 317 316 318 322 319 307 297 303 308 308 310 314 314 312 307 309 317 320 321 323 324 326 331 333 334 337 342 345 349 351 351 352 352 351 352 351 350 348 345 340 334 325 314 304 294 282 272 262 256 252 249 246 243 242 240 240 238 238 238 237 237 236 236 235 234 232 231 231 231 231 229 229 230 230 231 232 233 234 235 236
318 314 309 305 307 312 316 316 315 311 309 303 299 302 307 308 311 317 319 314 310 314 319 320 319 319 321 324 329 332 333 337 340 342 346 349 350 352 353 353 353 353 354 353 351 347 343 337 329 320 308 295 284 271 261 257 254 250 247 245 243 241 240 239 239 238 238 238 238 237 236 234 233 232 232 232 231 231 231 232 232 233 234 235 235 237
316 316 309 300 299 303 308 309 307 304 305 305 302 304 310 313 319 326 321 312 312 318 320 319 318 317 319 323 328 331 333 335 336 339 343 346 349 352 354 353 353 353 355 356 356 353 349 346 343 336 323 309 298 285 270 261 257 254 251 248 245 243 242 241 240 240 239 239 239 238 237 236 234 233 233 233 233 232 233 233 234 234 234 235 235 237
306 308 305 298 296 298 299 302 305 305 306 306 305 307 313 319 326 325 315 310 317 321 320 319 318 317 320 324 327 328 330 331 332 336 341 345 348 351 354 354 353 354 355 356 356 354 350 347 347 344 333 318 307 297 283 270 264 259 256 252 248 245 243 242 242 241 240 240 239 239 238 237 236 235 234 234 233 233 234 234 235 235 235 236 236 237
298 302 303 300 298 299 300 302 307 309 307 307 310 313 317 322 321 315 312 316 320 321 321 320 319 318 320 323 324 325 326 330 332 335 340 344 347 349 352 354 355 356 357 358 358 357 353 348 347 346 341 332 319 307 296 284 275 268 264 259 254 250 247 244 243 242 241 240 239 239 238 238 237 236 235 235 234 234 234 235 236 236 237 237 238 238
290 295 298 296 295 301 306 308 311 311 306 307 314 316 318 318 315 314 317 319 319 320 322 321 319 319 320 321 322 324 326 329 333 335 338 342 345 348 350 352 355 357 357 358 359 359 358 354 350 347 344 339 331 320 309 298 288 280 274 269 263 258 252 247 244 242 241 240 239 239 238 238 238 237 237 236 235 235 234 234 235 237 237 238 239 240
285 287 293 294 295 301 304 302 302 304 304 306 310 312 313 315 317 319 319 318 319 321 322 321 321 321 321 320 322 324 326 329 332 334 337 340 342 345 348 351 354 356 356 357 358 359 0 359 356 352 349 344 337 329 322 312 301 292 286 279 272 265 259 253 248 244 242 241 239 239 238 238 238 238 237 237 236 236 235 235 235 236 238 238 239 240
282 281 287 292 293 293 293 292 295 301 306 307 306 308 312 316 319 321 319 318 320 322 322 322 323 323 323 323 322 323 327 329 330 333 336 337 339 342 345 349 352 354 355 357 359 0 2 3 2 0 0 359 352 340 330 321 309 301 296 291 282 274 266 259 253 248 244 242 240 239 238 237 237 237 237 237 236 236 236 236 236 237 238 239 239 240
282 281 286 291 293 295 295 295 296 300 305 308 307 308 314 318 320 322 322 321 321 322 323 323 323 324 325 324 323 324 326 327 328 331 333 335 337 339 342 346 349 351 354 356 358 359 2 5 6 6 8 12 11 4 353 340 323 309 301 297 292 285 276 266 258 252 247 244 242 240 238 238 237 237 237 236 236 236 236 237 237 237 238 239 240 240
284 281 283 287 291 295 297 297 298 299 302 308 310 310 313 317 320 322 323 322 321 321 323 323 323 324 326 325 325 324 323 324 326 328 330 333 334 336 339 342 345 348 351 355 357 359 1 5 8 8 9 12 14 14 11 5 354 338 321 307 298 293 286 277 267 258 252 247 243 241 239 237 237 236 236 235 235 235 236 237 237 238 238 239 240 241
285 282 283 283 284 287 290 294 297 298 299 304 308 309 311 315 319 321 322 322 322 322 323 324 325 325 327 328 327 323 321 323 324 325 327 330 332 334 336 338 341 345 348 352 356 359 1 4 7 7 7 8 9 10 10 10 8 4 355 341 324 307 295 286 277 266 258 251 246 241 239 237 236 235 234 234 233 233 234 236 236 237 238 239 240 241
283 282 282 282 284 289 292 295 298 300 301 302 302 303 307 313 317 321 323 324 325 326 325 326 327 326 327 329 328 326 323 322 322 323 325 327 329 332 333 334 337 341 344 348 354 358 1 3 5 5 4 5 6 6 6 7 7 7 7 4 356 342 322 303 289 277 267 257 249 243 239 236 234 233 232 232 232 232 233 235 236 236 237 239 240 241
280 278 279 281 284 288 290 290 293 298 301 300 298 299 304 310 315 320 322 324 326 326 325 326 327 327 328 329 330 330 328 324 323 323 323 325 327 329 330 332 334 337 340 344 350 355 358 1 3 3 2 1 2 3 4 6 6 6 6 7 5 2 354 337 316 296 279 266 254 245 238 233 230 230 230 230 230 231 232 234 235 236 236 238 239 240
275 274 273 275 279 282 283 283 285 291 296 298 298 299 303 310 315 318 320 322 324 324 323 324 326 327 328 329 331 332 331 329 326 325 323 324 325 327 328 331 332 334 336 339 345 350 353 356 360 2 1 360 359 0 2 4 4 3 4 5 6 8 7 2 353 337 310 282 261 245 235 228 225 225 226 227 227 229 230 232 233 234 235 237 238 240